COSMOS 2251 DEB, 34918

Orbit data source: Space-Track

COSMOS 2251 DEB, 34918 is space debris in LEO originally from a launch on Wed, 16 Jun 1993 UTC launched from the Plesetsk Missile And Space Complex (PKMTR). The debris from Iridium 33, an American commercial communications satellite, has been tracked extensively since its accidental collision with the defunct Russian satellite Cosmos 2251 in 2009. This event, occurring at high speed in low Earth orbit (LEO), generated thousands of pieces of space debris, significantly increasing the risk of further collisions. The Iridium 33 debris cloud has impacted space traffic management and orbital debris mitigation strategies, making it a subject of ongoing study in space situational awareness.

Loading next visibility...
Identifier
34918, 1993-036ADP
Orbit
LEO
Country
Flag of CISCIS
Related business
Manufacturer
Unknown
Mission
Spacecraft
Bus & Motor
Unknown
Mass
Unknown
Launch date (UTC)
1993-06-16 (33 years ago)
Launch vehicle
Unknown
Launch site
Plesetsk Missile And Space Complex (PKMTR)
Object type
Payload
Rocket body
Debris
Shape & HBR
Unknown shape, 0.1 m
Radar Cross Section
Small (<0.1 m²)

Expand to show TLE details & history
Last TLE update: 5 days ago

TLE from 5 days ago
0 COSMOS 2251 DEB
1 34918U 93036ADP 26116.59137369  .00009710  00000-0  18708-2 0  9998
2 34918  74.0687  55.8516 0026355 343.3396 195.9944 14.63411009673074
Epoch: 2026-04-26T14:11Z
TLE epoch observation values (Epoch: 2026-04-26T14:11:34.686Z)
Latitude
0.61186°
Longitude
168.19016°
Altitude
702.644 km
Speed
7.495 km/s
True Right ascension
15h 42m 42s
True Declination
0° 36' 29"
Sunlit
Object was in full shadow at epoch
Visualization orbit readout
Latitude
Unknown
Longitude
Unknown
Altitude
Unknown
Speed
Unknown
Apparent Right ascension
Unknown
Apparent Declination
Unknown
Sunlit
N/A
Visualization observer readout
Local Sidereal Time
18:33:12
Azimuth
Unknown
Elevation
Unknown
Doppler factor
Unknown
Orbital elements
Apogee altitude
698.374 km
Perigee altitude
661.171 km
Semi-major axis
7,057.909 km
Eccentricity
0.00264
Inclination
74.0687°
RAAN
55.8516°
Arg. of periapsis
343.3396°
True anomaly
195.91145°
Mean anomaly
195.9944°
Eccentric anomaly
195.9529°
Mean motion
3.6604 °/min
Orbital period
98.35 mins
BSTAR
0.0018708
Loading maneuver chart data...
Computing Atmospheric mass density...

Documentation

Showing up to 5 results
|